Flag for Saint Kitts and Nevis Weather past 2 weeks in Basseterre, Saint Kitts and Nevis

Now
88 °F

Passing clouds.


Feels Like: 98 °F
Forecast: 80 / 86 °F
Wind: 12 mph from Southwest

Location: Golden Rock

Current Time: Apr 27, 2015 at 1:49:18 PM

Latest Report: Apr 27, 2015 at 1:00 PM


Visibility: N/A

Pressure: 29.95 "Hg

Humidity: 66%

Dew point: 75 °F

Location of BasseterreLocation

Historic Weather in Basseterre — Graph

°F

Basseterre temperature yesterday

Maximum temperature yesterday: 86 °F (at 12:00 PM)
Minimum temperature yesterday: 73 °F (at 6:00 AM)
Average temperature yesterday: 82 °F

Past Weeks' High & Low Weather Summary

 TemperatureHumidityPressure
High86 °F (Apr 12, 12:00 PM)100% (Apr 16, 5:00 PM)30.12 "Hg (Apr 16, 5:00 PM)
Low73 °F (Apr 13, 6:00 AM)58% (Apr 21, 1:00 PM)29.92 "Hg (Apr 24, 4:00 PM)
Average81 °F74%30.02 "Hg
* Reported Apr 12 12:00 Noon — Apr 27 12:00 Noon, Basseterre, Weather by CustomWeather, © 2015

Note: Actual official high and low records may vary slightly from our data, if they occured in-between our weather recording intervals... More about our weather records

Advertising

Basseterre weather history for previous 24 hours

 ConditionsComfort  
Time TempWeatherWind HumidityBarometerVisibility
12:00 PM
Mon, Apr 27
86 °FPassing clouds.12 mph66%29.98 "HgN/A
11:00 AM84 °FScattered clouds.12 mph70%29.98 "HgN/A
10:00 AM84 °FPassing clouds.9 mph70%30.01 "HgN/A
9:00 AM84 °FScattered clouds.9 mph74%30.01 "HgN/A
8:00 AM82 °FPassing clouds.9 mph74%29.98 "HgN/A
7:00 AM79 °FPassing clouds.No wind74%29.98 "HgN/A
6:00 AM77 °FPassing clouds.No wind89%29.95 "HgN/A
9:00 PM
Sun, Apr 26
77 °FPassing clouds.No wind89%29.98 "HgN/A
8:00 PM79 °FPassing clouds.3 mph84%29.98 "HgN/A
7:00 PM79 °FPassing clouds.5 mph84%29.95 "HgN/A
6:00 PM81 °FPassing clouds.10 mph79%29.95 "HgN/A
5:00 PM82 °FPassing clouds.9 mph74%29.92 "HgN/A
4:00 PM84 °FPassing clouds.9 mph70%29.92 "HgN/A
3:00 PM86 °FPassing clouds.12 mph66%29.95 "HgN/A
2:00 PM86 °FPassing clouds.13 mph66%29.95 "HgN/A
1:00 PM86 °FPassing clouds.12 mph62%29.98 "HgN/A
Weather by CustomWeather, © 2015

See weather overviewHow to use our weather pages